Hourly Weather Rudlowo

Today, 18 April, Sunday

Time Temperature Precipitation Wind Pressure Humidity
00:00 +7°C° 0 mm 3 mps 764 mmHg 90%
01:00 +7°C° 0 mm 3 mps 764 mmHg 90%
02:00 +7°C° 0 mm 3 mps 764 mmHg 90%
03:00 +7°C° 0 mm 3 mps 764 mmHg 91%
04:00 +7°C° 0 mm 3 mps 764 mmHg 91%
05:00 +8°C° 0 mm 3 mps 764 mmHg 89%
06:00 +9°C° 0 mm 3 mps 764 mmHg 86%
07:00 +9°C° 0 mm 3 mps 764 mmHg 83%
08:00 +11°C° 0 mm 3 mps 764 mmHg 78%
09:00 +12°C° 0 mm 3 mps 764 mmHg 73%
10:00 +14°C° 0 mm 2 mps 764 mmHg 68%
11:00 +14°C° 0.1 mm 2 mps 764 mmHg 67%
12:00 +15°C° 0.1 mm 2 mps 764 mmHg 66%
13:00 +15°C° 0.1 mm 2 mps 764 mmHg 64%
14:00 +15°C° 0.3 mm 2 mps 764 mmHg 69%
15:00 +14°C° 0.3 mm 2 mps 764 mmHg 73%
16:00 +14°C° 0.3 mm 2 mps 764 mmHg 77%
17:00 +13°C° 0.4 mm 2 mps 764 mmHg 82%
18:00 +12°C° 0.4 mm 2 mps 764 mmHg 87%
19:00 +10°C° 0.4 mm 2 mps 764 mmHg 92%
20:00 +9°C° 0.8 mm 2 mps 764 mmHg 93%
21:00 +9°C° 0.8 mm 2 mps 764 mmHg 94%
22:00 +9°C° 0.8 mm 2 mps 764 mmHg 95%
23:00 +9°C° 0.1 mm 2 mps 764 mmHg 94%

Tomorrow, 19 April, Monday

Time Temperature Precipitation Wind Pressure Humidity
00:00 +8°C° 0.1 mm 2 mps 764 mmHg 93%
01:00 +8°C° 0.1 mm 2 mps 764 mmHg 92%
02:00 +8°C° 0 mm 3 mps 764 mmHg 91%
03:00 +7°C° 0 mm 3 mps 764 mmHg 90%
04:00 +7°C° 0 mm 3 mps 764 mmHg 89%
05:00 +8°C° 0 mm 3 mps 764 mmHg 86%
06:00 +9°C° 0 mm 3 mps 764 mmHg 84%
07:00 +10°C° 0 mm 4 mps 764 mmHg 81%
08:00 +11°C° 0 mm 4 mps 764 mmHg 76%
09:00 +12°C° 0 mm 4 mps 764 mmHg 70%
10:00 +14°C° 0 mm 4 mps 764 mmHg 65%
11:00 +14°C° 0 mm 4 mps 764 mmHg 61%
12:00 +15°C° 0 mm 4 mps 764 mmHg 56%
13:00 +15°C° 0 mm 4 mps 764 mmHg 51%
14:00 +14°C° 0 mm 4 mps 764 mmHg 57%
15:00 +13°C° 0 mm 4 mps 763 mmHg 63%
16:00 +12°C° 0 mm 4 mps 763 mmHg 69%
17:00 +11°C° 0 mm 4 mps 763 mmHg 71%
18:00 +11°C° 0 mm 4 mps 763 mmHg 72%
19:00 +10°C° 0 mm 3 mps 764 mmHg 74%
20:00 +9°C° 0 mm 3 mps 764 mmHg 78%
21:00 +8°C° 0 mm 3 mps 763 mmHg 82%
22:00 +8°C° 0 mm 3 mps 763 mmHg 86%
23:00 +7°C° 0 mm 3 mps 763 mmHg 86%

Day after tomorrow, 20 April, Tuesday

Time Temperature Precipitation Wind Pressure Humidity
00:00 +7°C° 0 mm 3 mps 763 mmHg 87%
01:00 +5°C° 0 mm 3 mps 763 mmHg 87%
02:00 +6°C° 0 mm 2 mps 763 mmHg 85%
03:00 +6°C° 0 mm 2 mps 763 mmHg 84%
04:00 +7°C° 0 mm 1 mps 763 mmHg 82%
05:00 +7°C° 0 mm 2 mps 763 mmHg 80%
06:00 +7°C° 0 mm 2 mps 763 mmHg 78%
07:00 +8°C° 0 mm 2 mps 762 mmHg 76%
08:00 +9°C° 0.1 mm 2 mps 762 mmHg 72%
09:00 +10°C° 0.1 mm 2 mps 762 mmHg 68%
10:00 +12°C° 0.1 mm 2 mps 762 mmHg 64%
11:00 +11°C° 0.1 mm 3 mps 761 mmHg 63%
12:00 +12°C° 0.1 mm 3 mps 761 mmHg 63%
13:00 +12°C° 0.1 mm 3 mps 761 mmHg 62%
14:00 +11°C° 0.1 mm 4 mps 761 mmHg 64%
15:00 +11°C° 0.1 mm 4 mps 760 mmHg 66%
16:00 +11°C° 0.1 mm 4 mps 760 mmHg 68%
17:00 +10°C° 0 mm 3 mps 760 mmHg 73%
18:00 +8°C° 0 mm 3 mps 760 mmHg 78%
19:00 +7°C° 0 mm 2 mps 760 mmHg 84%
20:00 +7°C° 0 mm 2 mps 759 mmHg 85%
21:00 +6°C° 0 mm 2 mps 759 mmHg 86%
22:00 +6°C° 0 mm 1 mps 759 mmHg 87%
23:00 +6°C° 0 mm 1 mps 759 mmHg 87%

21 April, Wednesday

Time Temperature Precipitation Wind Pressure Humidity
00:00 +5°C° 0 mm 2 mps 759 mmHg 88%
01:00 +5°C° 0 mm 2 mps 758 mmHg 88%
02:00 +4°C° 0 mm 2 mps 758 mmHg 89%
03:00 +4°C° 0 mm 2 mps 758 mmHg 89%
04:00 +4°C° 0 mm 2 mps 758 mmHg 90%
05:00 +4°C° 0 mm 3 mps 758 mmHg 86%
06:00 +5°C° 0 mm 3 mps 757 mmHg 81%
07:00 +7°C° 0 mm 3 mps 757 mmHg 77%
08:00 +8°C° 0 mm 3 mps 757 mmHg 73%
09:00 +9°C° 0 mm 3 mps 757 mmHg 69%
10:00 +10°C° 0 mm 3 mps 757 mmHg 65%
11:00 +11°C° 0 mm 3 mps 757 mmHg 63%
12:00 +11°C° 0 mm 3 mps 757 mmHg 60%
13:00 +13°C° 0 mm 2 mps 756 mmHg 57%
14:00 +13°C° 0 mm 2 mps 756 mmHg 57%
15:00 +13°C° 0 mm 2 mps 756 mmHg 57%
16:00 +13°C° 0 mm 1 mps 755 mmHg 57%
17:00 +12°C° 0 mm 1 mps 755 mmHg 62%
18:00 +10°C° 0 mm 2 mps 755 mmHg 67%
19:00 +9°C° 0 mm 2 mps 755 mmHg 72%
20:00 +8°C° 0.4 mm 2 mps 755 mmHg 79%
21:00 +7°C° 0.4 mm 3 mps 755 mmHg 85%
22:00 +5°C° 0.4 mm 3 mps 756 mmHg 92%
23:00 +5°C° 0.2 mm 3 mps 756 mmHg 91%

22 April, Thursday

Time Temperature Precipitation Wind Pressure Humidity
00:00 +4°C° 0.2 mm 3 mps 756 mmHg 91%
01:00 +4°C° 0.2 mm 3 mps 756 mmHg 91%
02:00 +3°C° 0.1 mm 4 mps 756 mmHg 92%
03:00 +3°C° 0.1 mm 4 mps 756 mmHg 92%
04:00 +1°C° 0.1 mm 4 mps 756 mmHg 93%
05:00 +3°C° 0 mm 4 mps 757 mmHg 89%
06:00 +3°C° 0 mm 4 mps 757 mmHg 85%
07:00 +3°C° 0 mm 5 mps 757 mmHg 81%
08:00 +3°C° 0 mm 5 mps 757 mmHg 77%
09:00 +5°C° 0 mm 4 mps 758 mmHg 72%
10:00 +6°C° 0 mm 4 mps 758 mmHg 68%
11:00 +5°C° 0 mm 5 mps 758 mmHg 68%
12:00 +5°C° 0 mm 5 mps 758 mmHg 68%
13:00 +5°C° 0 mm 5 mps 759 mmHg 68%
14:00 +6°C° 0 mm 5 mps 759 mmHg 67%
15:00 +6°C° 0 mm 4 mps 759 mmHg 66%
16:00 +6°C° 0 mm 4 mps 759 mmHg 65%
17:00 +5°C° 0.1 mm 3 mps 759 mmHg 70%
18:00 +6°C° 0.1 mm 1 mps 760 mmHg 75%
19:00 +4°C° 0.1 mm 0 mps 760 mmHg 80%
20:00 +5°C° 0 mm 1 mps 760 mmHg 82%
21:00 +3°C° 0 mm 2 mps 761 mmHg 85%
22:00 +2°C° 0 mm 3 mps 761 mmHg 87%
23:00 +2°C° 0 mm 3 mps 761 mmHg 88%

23 April, Friday

Time Temperature Precipitation Wind Pressure Humidity
00:00 +2°C° 0 mm 3 mps 762 mmHg 89%
01:00 +1°C° 0 mm 3 mps 762 mmHg 89%
02:00 +2°C° 0 mm 3 mps 763 mmHg 87%
03:00 +1°C° 0 mm 4 mps 763 mmHg 86%
04:00 +2°C° 0 mm 5 mps 764 mmHg 84%
05:00 +2°C° 0 mm 5 mps 764 mmHg 82%
06:00 +2°C° 0 mm 6 mps 765 mmHg 81%
07:00 +2°C° 0 mm 7 mps 765 mmHg 80%
08:00 +3°C° 0 mm 7 mps 766 mmHg 71%
09:00 +5°C° 0 mm 7 mps 766 mmHg 61%
10:00 +6°C° 0 mm 7 mps 767 mmHg 52%
11:00 +6°C° 0 mm 7 mps 767 mmHg 52%
12:00 +6°C° 0 mm 7 mps 768 mmHg 52%
13:00 +6°C° 0 mm 7 mps 768 mmHg 52%
14:00 +6°C° 0 mm 7 mps 768 mmHg 54%
15:00 +7°C° 0 mm 6 mps 769 mmHg 57%
16:00 +7°C° 0 mm 6 mps 769 mmHg 59%
17:00 +5°C° 0 mm 5 mps 769 mmHg 65%
18:00 +4°C° 0 mm 4 mps 770 mmHg 72%
19:00 +3°C° 0 mm 3 mps 770 mmHg 78%
20:00 +2°C° 0 mm 3 mps 770 mmHg 78%
21:00 +2°C° 0 mm 3 mps 770 mmHg 78%
22:00 +2°C° 0 mm 3 mps 771 mmHg 79%
23:00 +2°C° 0 mm 3 mps 771 mmHg 80%
Show more